Theta_e
308 309 309 308 309 310 309 310 307 309 309 313 318 321 323 324 329 329 331 333 335 338 342 346 349 356 362 352 358 356 356 351 353 354 354 358 364 367 367 368 372 375 376 376
305 308 308 306 308 309 310 310 310 310 310 316 319 321 320 323 327 328 330 332 334 337 339 342 346 354 359 362 360 360 366 362 361 366 367 368 370 371 373 373 376 377 374 375
300 306 306 302 307 308 309 311 310 307 312 317 316 317 319 321 327 328 329 332 334 335 337 339 342 348 347 360 364 366 368 370 374 373 372 374 376 377 375 374 376 378 376 376
299 302 294 306 312 312 309 311 312 312 314 316 317 319 323 327 326 329 330 333 335 336 338 341 343 345 351 351 364 368 367 370 371 376 375 376 378 378 378 376 376 375 377 377
297 297 302 304 308 308 307 307 313 312 315 317 318 319 323 324 328 329 330 332 333 336 338 342 345 349 351 354 357 365 366 369 372 373 374 373 374 377 374 375 375 377 376 374
299 295 294 304 310 313 312 303 313 314 316 317 320 314 317 326 328 329 331 332 332 334 337 337 343 347 350 347 351 356 368 369 374 375 375 376 378 378 377 377 376 370 367 363
300 297 300 307 310 312 302 305 317 318 319 320 318 320 326 326 327 329 331 331 333 334 334 336 340 345 349 351 347 354 364 369 374 377 378 378 379 377 377 376 370 365 354 352
302 299 297 312 310 304 310 317 320 321 321 320 321 323 323 325 326 327 328 330 332 332 334 337 342 349 351 359 359 365 365 367 366 372 371 372 376 371 370 363 360 354 350 347
303 303 313 314 313 317 318 315 318 320 320 321 319 321 322 323 325 326 328 331 334 333 336 341 349 356 355 364 366 365 366 369 371 373 372 373 368 357 351 356 352 349 344 341
304 307 309 310 313 316 318 319 320 321 320 320 319 321 321 322 325 325 330 332 334 335 339 342 353 357 358 366 367 365 362 364 369 367 361 362 352 352 352 353 349 348 343 339
300 304 308 311 313 314 315 317 320 321 321 320 320 319 321 323 325 326 331 334 337 339 340 344 353 354 354 358 363 361 362 357 349 332 323 317 313 319 326 315 338 346 345 341
296 304 305 309 314 316 315 314 320 319 318 321 321 321 322 324 326 328 334 338 339 341 343 347 345 346 350 355 351 348 343 335 331 331 330 324 319 315 306 307 306 304 308 317
301 307 306 310 314 315 314 317 316 317 318 317 319 321 323 324 327 330 337 338 337 339 341 343 338 344 344 345 345 341 334 335 331 330 331 332 329 324 318 310 304 301 300 300
308 307 305 308 311 315 314 315 318 316 317 319 319 321 322 324 327 335 338 336 333 329 330 328 328 331 337 340 340 336 334 322 336 332 335 333 330 323 321 318 310 309 304 304
311 310 309 311 312 313 314 315 317 316 317 318 321 322 325 327 333 332 328 327 325 324 323 325 325 326 330 331 330 330 331 332 332 332 336 329 332 328 325 319 317 311 308 307
317 318 310 309 310 316 314 314 315 317 318 319 322 326 333 331 326 321 320 321 320 319 320 323 323 324 327 329 328 329 329 326 330 333 334 330 327 322 321 320 318 318 319 316
316 310 310 310 315 315 313 317 319 318 320 322 327 331 326 321 321 319 318 319 318 317 318 319 321 329 331 332 330 330 331 331 326 327 325 323 322 321 321 321 320 320 320 313
318 317 316 317 316 316 317 319 319 320 322 331 327 323 321 320 318 317 318 319 318 318 318 320 322 322 321 321 325 325 324 323 322 322 322 322 321 321 321 320 319 316 315 313
321 319 318 317 318 319 319 319 323 327 331 327 323 321 321 320 320 320 321 319 320 316 317 323 318 315 316 319 319 320 319 318 319 319 319 317 319 320 319 319 317 314 313 313
323 324 323 322 323 325 325 327 328 330 326 324 323 318 316 316 316 316 316 313 315 316 316 316 318 316 318 321 321 319 319 317 317 318 318 318 318 316 315 311 315 315 315 316
324 326 325 327 329 331 331 331 328 322 322 320 317 315 315 317 320 319 315 312 316 317 318 318 317 318 319 320 319 319 319 317 318 317 317 315 315 315 316 315 315 315 315 316
323 324 324 325 326 326 326 322 320 319 318 318 319 319 318 319 320 320 322 317 316 315 316 316 317 317 318 321 319 319 319 319 318 318 317 317 317 316 315 315 314 314 315 315
322 322 324 323 323 321 322 320 319 318 318 319 320 321 321 320 320 316 312 316 313 311 314 315 313 314 316 318 317 317 316 316 315 315 315 315 314 314 314 314 314 314 315 315
323 323 323 323 323 321 319 321 322 324 326 326 324 326 323 318 318 317 314 310 309 311 313 313 313 314 315 316 316 315 315 315 315 315 315 307 316 317 317 317 316 316 317 312
327 324 324 324 323 322 322 321 321 324 327 327 327 325 325 324 320 319 315 313 309 311 313 308 312 315 318 318 318 318 318 318 318 319 319 319 319 320 319 319 318 318 317 316
327 325 328 328 327 326 326 328 329 325 321 320 320 322 323 324 324 321 317 314 316 313 317 318 320 320 320 320 320 320 320 319 319 320 317 320 319 319 318 320 319 319 318 317
325 316 326 329 331 334 333 324 321 319 317 318 320 322 322 321 318 317 313 317 316 316 318 319 320 319 321 321 321 321 321 321 313 319 319 320 317 317 317 317 317 317 317 318
Wind_Speed
23 24 25 26 22 22 22 19 21 17 15 14 12 11 8 3 6 3 7 9 9 9 13 13 16 17 15 18 16 17 16 20 19 20 20 19 17 14 14 14 14 13 11 10
25 22 26 28 26 26 27 26 26 25 25 20 17 16 5 0 3 2 3 6 8 7 8 6 6 8 11 13 14 16 14 15 17 15 14 14 14 16 14 13 14 13 11 10
23 22 22 28 25 28 26 28 25 28 27 23 21 18 17 8 2 3 3 5 6 7 6 7 6 5 9 11 13 14 15 14 13 14 15 14 13 14 14 15 14 12 13 13
20 21 28 23 22 24 26 24 25 28 28 28 25 19 2 4 7 3 4 5 7 7 7 8 11 10 9 11 14 16 16 16 16 13 14 14 14 14 14 14 15 15 15 16
19 19 24 25 20 21 24 27 23 27 20 19 17 27 8 6 3 2 5 7 8 9 9 10 9 8 10 10 13 15 19 18 17 17 16 17 18 17 16 16 16 17 16 14
16 21 26 22 22 23 24 24 20 25 17 13 5 8 3 11 5 4 7 8 10 11 11 11 11 13 11 9 10 14 15 15 15 15 15 15 15 15 15 14 13 13 12 10
16 20 25 24 27 26 19 13 10 15 12 10 7 4 7 5 5 6 8 10 10 12 11 13 13 12 14 11 11 11 11 13 13 13 14 14 15 13 15 13 13 11 7 8
17 23 31 13 14 22 20 3 8 5 7 2 5 7 10 8 9 9 12 12 12 13 12 13 14 11 13 11 8 8 8 8 9 12 13 14 16 15 12 15 15 12 12 10
21 20 26 24 19 17 15 5 0 3 4 1 6 8 9 12 12 13 13 12 13 14 13 13 14 7 13 11 7 8 9 10 11 11 13 12 14 13 11 11 11 13 12 10
23 20 27 28 22 18 13 13 6 6 6 6 8 9 12 12 11 13 14 15 14 14 14 14 12 10 14 12 6 7 9 10 9 11 9 11 8 8 11 11 11 10 9 11
24 26 29 33 29 25 20 16 14 11 9 11 9 13 13 13 12 14 13 15 15 14 13 15 11 10 9 9 5 6 8 10 11 11 14 13 13 11 9 9 2 12 9 8
10 19 20 26 25 27 25 22 18 19 17 9 9 14 16 14 11 13 13 14 14 16 15 10 11 10 9 1 11 11 11 10 10 10 11 11 13 13 25 19 25 25 20 11
22 20 23 27 27 28 25 28 21 20 13 11 13 16 15 14 12 11 12 13 13 13 12 8 7 7 6 9 13 12 13 11 10 10 11 12 11 11 11 15 29 26 23 17
25 25 24 27 19 23 20 20 25 15 12 12 16 17 14 13 12 11 11 10 6 6 8 7 9 11 7 7 10 12 10 9 10 8 10 10 9 10 8 8 10 9 14 7
28 27 28 21 18 19 19 17 22 15 13 15 14 10 11 10 8 6 8 7 8 11 10 10 13 13 13 14 13 14 10 8 8 9 8 6 7 6 6 9 11 11 8 7
21 14 24 22 17 20 17 12 18 14 14 11 8 5 6 6 8 11 11 9 10 11 12 13 14 11 11 11 10 8 10 9 6 9 7 7 7 6 10 8 10 10 9 8
19 16 12 16 17 17 15 18 15 12 9 10 4 10 10 10 11 12 11 10 12 13 12 13 12 7 5 7 5 4 5 7 7 7 8 9 8 7 7 8 8 7 8 7
10 7 10 11 12 15 17 13 9 9 6 13 15 13 10 11 13 12 11 12 13 13 13 12 14 12 13 12 8 5 5 7 7 8 7 8 8 6 7 8 8 7 6 5
7 6 5 3 4 8 8 11 7 8 15 15 15 14 14 12 12 9 10 12 13 13 10 13 19 16 13 15 10 8 7 8 8 8 7 8 8 8 7 7 8 7 7 6
9 7 5 1 3 6 5 8 13 18 15 15 17 16 15 13 13 13 12 14 11 8 10 12 12 12 9 6 6 5 7 7 7 7 6 7 7 8 10 7 5 5 4 3
13 10 7 9 8 10 16 16 16 16 17 16 18 15 14 12 10 10 13 10 10 11 12 9 7 6 6 7 7 8 6 8 8 7 8 8 8 7 6 5 5 5 3 2
15 16 17 16 14 15 16 18 18 17 17 15 13 13 15 15 13 14 13 11 9 6 9 9 9 9 6 5 8 8 8 9 8 8 7 7 6 5 4 4 3 3 2 1
15 17 15 15 15 18 18 18 17 18 15 10 11 12 12 10 9 9 9 11 9 10 10 9 9 11 2 8 8 9 9 9 8 7 6 6 5 4 3 3 1 0 2 2
11 14 14 12 15 16 17 16 16 12 9 6 10 11 11 9 11 11 11 12 13 12 10 8 7 10 7 8 8 9 9 9 8 7 5 1 3 2 1 2 3 3 2 4
11 11 11 11 12 11 14 13 9 5 11 13 12 12 13 10 10 10 11 10 9 12 10 3 5 7 9 8 8 8 6 5 4 3 2 2 2 1 3 4 4 4 6 6
9 10 10 11 10 9 8 8 8 9 11 12 8 8 9 9 9 10 10 10 10 10 9 7 8 7 6 6 5 5 5 5 4 3 3 5 5 6 6 4 6 6 7 7
9 2 9 8 7 8 7 11 12 12 7 5 7 9 10 9 9 8 7 8 10 10 9 7 7 5 4 2 4 3 4 5 5 6 4 2 4 5 7 7 7 7 6 6
Wind_Direction
280 284 281 281 278 277 276 273 275 280 270 271 269 99 88 20 63 47 31 26 32 350 335 330 190 185 189 218 200 218 215 202 210 207 211 204 201 209 202 195 185 205 213 214
272 272 278 275 268 267 260 257 264 273 271 274 287 305 319 99 73 291 21 14 7 4 347 310 340 187 196 214 233 203 228 228 206 209 213 213 199 192 192 191 184 192 204 201
272 277 274 261 250 257 261 260 258 252 257 263 259 267 278 265 188 221 313 356 344 329 355 354 326 264 251 221 221 240 212 227 228 204 201 206 201 187 188 184 180 181 195 188
267 271 254 265 264 272 276 261 253 253 253 260 261 254 212 29 271 64 306 326 318 321 326 340 327 311 302 282 210 213 231 215 219 213 204 200 196 186 183 181 182 187 189 192
260 258 264 268 260 255 257 260 263 259 269 277 260 243 193 179 150 296 309 305 320 310 335 307 292 300 281 251 253 222 214 215 210 212 207 200 193 182 180 183 187 189 187 182
254 263 264 268 266 257 269 263 270 276 269 247 200 240 296 159 128 306 308 323 316 323 308 311 323 309 313 290 250 246 223 221 210 207 207 200 195 187 182 185 187 189 174 165
248 249 256 266 281 289 258 294 311 311 194 223 224 282 23 357 325 314 308 306 318 308 316 319 315 315 313 303 281 267 231 211 210 202 200 194 187 184 182 174 167 176 164 138
277 264 266 256 276 263 267 264 324 13 40 21 297 320 300 316 316 316 316 321 324 318 320 326 318 315 305 294 270 263 225 203 209 185 197 186 185 179 172 161 154 155 146 142
282 286 299 306 314 296 320 308 163 230 298 278 266 277 306 313 313 322 322 322 320 314 322 320 308 337 298 291 260 239 208 204 195 172 192 170 169 148 137 163 156 163 161 139
286 274 272 279 286 279 260 252 261 210 246 282 289 303 303 303 317 315 318 321 312 313 323 309 325 329 309 286 267 224 193 185 172 173 120 116 117 137 148 166 165 164 168 125
271 277 285 282 278 276 268 274 269 254 261 261 297 297 300 300 309 308 318 316 323 319 312 308 298 300 300 307 253 200 135 112 96 80 84 73 63 18 55 25 232 139 141 129
257 257 264 267 273 278 282 253 233 251 258 257 284 285 285 287 305 304 326 318 314 308 306 301 309 300 277 315 108 113 104 97 113 115 110 110 111 99 54 43 54 60 64 103
249 250 256 266 272 272 277 289 258 249 253 267 272 271 280 289 301 335 305 327 314 307 309 325 338 311 124 140 128 122 118 127 111 130 125 126 109 104 96 64 61 55 49 42
241 240 250 244 255 259 257 279 288 256 263 269 266 271 285 294 304 319 334 349 24 45 50 45 50 44 47 64 90 101 94 95 106 95 113 114 125 121 121 115 99 92 57 66
266 238 231 240 250 241 246 249 270 242 246 251 256 279 288 303 339 21 54 55 62 56 41 43 53 50 50 63 72 85 82 90 105 111 110 105 130 139 101 122 111 110 135 155
321 291 211 207 224 232 217 232 241 232 227 246 261 276 61 65 87 73 61 51 68 59 47 47 52 45 54 62 67 71 83 81 96 102 113 115 112 127 142 138 125 147 155 126
349 19 97 157 205 202 203 216 216 213 216 230 181 111 109 109 90 78 69 63 66 62 52 49 45 27 34 74 40 61 113 134 111 117 119 119 128 125 120 120 114 122 105 72
75 105 171 161 186 193 193 189 181 208 245 92 112 117 111 92 92 86 77 76 67 64 53 50 48 44 41 30 45 59 99 97 100 109 110 100 103 107 108 95 93 102 110 124
65 80 63 26 125 133 162 181 147 102 110 111 110 103 96 93 98 108 98 79 80 73 52 62 49 48 44 29 31 50 58 60 59 65 87 115 114 99 99 104 114 122 122 148
36 51 68 100 103 96 111 85 109 110 103 103 95 86 85 81 85 81 79 77 71 76 77 75 68 71 58 355 117 123 79 100 117 88 94 93 87 71 66 56 102 110 120 130
16 9 101 88 93 117 115 104 100 101 98 96 96 96 96 103 105 95 79 76 71 81 81 75 95 84 99 104 118 124 121 114 112 98 87 98 107 112 126 126 117 116 124 136
50 70 85 76 70 81 89 96 95 92 92 94 97 100 99 96 93 87 83 85 90 81 78 81 80 49 76 87 87 92 94 91 87 85 88 91 97 103 98 98 93 98 122 162
38 61 60 62 75 80 80 86 89 93 96 100 114 114 109 107 102 97 91 81 78 72 81 80 24 360 341 82 79 77 77 78 81 81 80 72 72 81 99 77 73 244 223 238
60 62 55 62 75 84 82 87 93 95 99 102 109 92 90 96 95 93 94 79 70 75 78 69 29 346 77 82 80 77 74 76 73 69 78 358 83 61 31 172 231 221 241 194
70 91 81 73 82 92 101 110 125 150 114 97 101 99 91 79 96 102 102 107 139 107 102 93 326 329 86 89 89 88 84 85 89 103 96 86 59 74 274 296 300 327 335 323
61 72 91 100 106 110 118 117 114 98 97 98 100 105 107 109 110 103 104 118 121 137 117 118 91 94 93 95 105 109 125 139 214 92 330 11 356 332 329 342 334 324 305 298
92 84 94 91 96 108 101 93 93 93 97 121 112 94 86 86 91 106 125 118 109 112 120 134 125 100 85 56 73 76 48 72 58 12 12 343 332 338 347 352 326 348 342 323